EW0603 Weather Reports


Display with metric or nautical units.
time (UTC)temp
F
wind
direction
speed
MPH
gust
MPH
rain 1hr
in
rain 24hr
in
rain mn
in
humidity
%
barometer
mb
20260831094704 72 171 0.0 1.0 0.00 0.33 0.00 85 1013.6
20260831094559 72 171 0.0 1.0 0.00 0.33 0.00 85 1013.5
20260831094234 72 192 0.0 0.0 0.00 0.33 0.00 85 1013.5
20260831094127 72 192 0.0 0.0 0.00 0.33 0.00 85 1013.5
20260831093803 72 184 0.0 1.0 0.00 0.33 0.00 85 1013.5
20260831093700 72 167 0.0 0.0 0.00 0.33 0.00 85 1013.5
20260831093554 72 167 0.0 0.0 0.00 0.33 0.00 85 1013.5
20260831093232 72 167 0.0 0.0 0.00 0.33 0.00 85 1013.5
20260831093126 72 167 0.0 0.0 0.00 0.33 0.00 85 1013.5
20260831093024 72 167 0.0 0.0 0.00 0.33 0.00 85 1013.5
20260831092657 72 167 0.0 0.0 0.00 0.33 0.00 85 1013.4
20260831092551 73 167 0.0 0.0 0.00 0.33 0.00 85 1013.4
20260831092010 73 168 0.0 0.0 0.00 0.33 0.00 84 1013.4
20260831091908 73 168 0.0 0.0 0.00 0.33 0.00 84 1013.4
20260831091803 73 167 0.0 0.0 0.00 0.33 0.00 84 1013.4
20260831091657 73 167 0.0 0.0 0.00 0.33 0.00 84 1013.4
20260831091552 73 167 0.0 0.0 0.00 0.33 0.00 84 1013.3
20260831091446 73 167 0.0 0.0 0.00 0.33 0.00 84 1013.4
20260831091125 73 168 0.0 0.0 0.00 0.33 0.00 84 1013.4
20260831091021 73 167 0.0 0.0 0.00 0.33 0.00 84 1013.4
20260831090918 73 165 0.0 0.0 0.00 0.33 0.00 84 1013.3
20260831090812 73 193 0.0 0.0 0.00 0.33 0.00 84 1013.4
20260831090705 73 229 0.0 0.0 0.00 0.33 0.00 84 1013.4
20260831090600 73 317 0.0 2.0 0.00 0.33 0.00 84 1013.4
20260831090452 73 318 0.0 2.0 0.00 0.33 0.00 84 1013.4
20260831090350 73 182 0.0 2.0 0.00 0.33 0.00 84 1013.4
20260831090247 73 182 0.0 2.0 0.00 0.33 0.00 84 1013.4
20260831085925 73 209 0.0 0.0 0.00 0.33 0.00 84 1013.4
20260831085341 73 190 0.0 0.0 0.00 0.33 0.00 83 1013.4
20260831085238 73 190 0.0 0.0 0.00 0.33 0.00 83 1013.4
20260831084655 73 188 0.0 2.0 0.00 0.33 0.00 84 1013.4
20260831084553 73 184 0.0 0.0 0.00 0.33 0.00 83 1013.4
20260831084451 73 192 0.0 0.0 0.00 0.33 0.00 83 1013.4
20260831084346 73 192 0.0 0.0 0.00 0.33 0.00 83 1013.4
20260831084243 73 192 0.0 0.0 0.00 0.33 0.00 83 1013.4
20260831084136 73 192 0.0 0.0 0.00 0.33 0.00 83 1013.4
20260831084032 73 192 0.0 0.0 0.00 0.33 0.00 83 1013.4
20260831083928 73 192 0.0 0.0 0.00 0.33 0.00 83 1013.3
20260831083825 73 192 0.0 0.0 0.00 0.33 0.00 83 1013.3
20260831083456 73 192 0.0 0.0 0.00 0.33 0.00 83 1013.3
20260831083349 73 211 0.0 0.0 0.00 0.33 0.00 83 1013.3
20260831083243 73 211 0.0 2.0 0.00 0.33 0.00 83 1013.3
20260831083136 73 211 0.0 2.0 0.00 0.33 0.00 83 1013.3
20260831083032 73 183 0.0 0.0 0.00 0.33 0.00 83 1013.3
20260831082930 73 183 0.0 0.0 0.00 0.33 0.00 83 1013.3
20260831082824 73 198 0.0 0.0 0.00 0.33 0.00 83 1013.3
20260831082717 73 198 0.0 0.0 0.00 0.33 0.00 83 1013.3
20260831082611 73 198 0.0 0.0 0.00 0.33 0.00 83 1013.3
20260831082507 73 198 0.0 0.0 0.00 0.33 0.00 83 1013.3
20260831082400 73 200 0.0 0.0 0.00 0.33 0.00 83 1013.3
20260831082255 73 200 0.0 2.0 0.00 0.33 0.00 83 1013.3
20260831082150 73 229 0.0 2.0 0.00 0.33 0.00 83 1013.3
20260831082048 73 236 0.0 2.0 0.00 0.33 0.00 83 1013.4
20260831081945 73 236 0.0 2.0 0.00 0.33 0.00 83 1013.3
20260831081838 73 173 0.0 1.0 0.00 0.33 0.00 83 1013.3
20260831081731 73 169 0.0 1.0 0.00 0.33 0.00 83 1013.3
20260831081627 73 186 0.0 0.0 0.00 0.34 0.00 83 1013.3
20260831081520 73 186 0.0 0.0 0.00 0.34 0.00 83 1013.3
20260831081415 73 200 0.0 3.0 0.00 0.34 0.00 83 1013.3
20260831081312 73 192 0.0 3.0 0.00 0.34 0.00 83 1013.3
20260831081207 73 171 0.0 0.0 0.00 0.34 0.00 83 1013.3
20260831081059 73 171 0.0 0.0 0.00 0.34 0.00 83 1013.2
20260831080953 73 196 0.0 0.0 0.00 0.34 0.00 82 1013.2
20260831080848 73 175 0.0 4.0 0.00 0.34 0.00 82 1013.2
20260831080741 73 175 0.0 4.0 0.00 0.34 0.00 82 1013.2
20260831080422 73 244 0.0 0.0 0.00 0.34 0.00 82 1013.1
20260831080320 73 163 0.0 0.0 0.00 0.34 0.00 82 1013.1
20260831080213 73 163 0.0 1.0 0.00 0.34 0.00 82 1013.1
20260831080110 73 185 0.0 1.0 0.00 0.34 0.00 82 1013.2
20260831080004 74 188 0.0 0.0 0.00 0.34 0.00 82 1013.2
20260831075902 74 188 0.0 1.0 0.00 0.34 0.00 82 1013.2
20260831075756 74 188 0.0 1.0 0.00 0.34 0.00 82 1013.2
20260831075653 74 202 0.0 3.0 0.00 0.34 0.00 82 1013.2
20260831075107 74 186 0.0 0.0 0.00 0.34 0.00 82 1013.3
20260831075004 74 186 0.0 0.0 0.00 0.34 0.00 82 1013.4
20260831074859 74 186 0.0 0.0 0.00 0.34 0.00 82 1013.4
20260831074755 74 186 0.0 0.0 0.00 0.34 0.00 82 1013.4
20260831074651 74 186 0.0 0.0 0.00 0.34 0.00 82 1013.4
20260831074325 74 186 0.0 0.0 0.00 0.34 0.00 82 1013.4
20260831074222 74 186 0.0 0.0 0.00 0.34 0.00 81 1013.4
20260831074118 74 186 0.0 0.0 0.00 0.34 0.00 81 1013.4
20260831073749 74 188 0.0 2.0 0.00 0.34 0.00 81 1013.4
20260831073642 74 188 0.0 2.0 0.00 0.34 0.00 81 1013.4
20260831073539 74 163 0.0 0.0 0.00 0.34 0.00 81 1013.4
20260831073431 74 163 0.0 1.0 0.00 0.34 0.00 81 1013.4
20260831073329 74 163 0.0 1.0 0.00 0.34 0.00 81 1013.3
20260831073223 74 161 0.0 0.0 0.00 0.34 0.00 81 1013.4
20260831073121 74 160 0.0 3.0 0.00 0.34 0.00 81 1013.4
20260831073016 74 161 0.0 3.0 0.00 0.34 0.00 81 1013.4
20260831072914 74 174 0.0 0.0 0.00 0.34 0.00 81 1013.4
20260831072808 74 175 0.0 0.0 0.00 0.34 0.00 81 1013.5
20260831072705 74 176 0.0 0.0 0.00 0.34 0.00 81 1013.5
20260831072557 74 175 0.0 0.0 0.00 0.34 0.00 81 1013.6
20260831072451 74 175 0.0 0.0 0.00 0.34 0.00 81 1013.6
20260831072343 74 175 0.0 2.0 0.00 0.34 0.00 81 1013.6
20260831072240 74 174 0.0 0.0 0.00 0.34 0.00 81 1013.7
20260831072135 74 204 0.0 0.0 0.00 0.34 0.00 81 1013.7
20260831072029 74 205 0.0 0.0 0.00 0.34 0.00 81 1013.7
20260831071922 74 205 0.0 0.0 0.00 0.34 0.00 81 1013.7
20260831071814 74 205 0.0 0.0 0.00 0.34 0.00 81 1013.8
20260831071710 74 205 0.0 1.0 0.00 0.34 0.00 81 1013.8
20260831071344 74 163 0.0 0.0 0.00 0.34 0.00 81 1013.9
20260831071237 74 163 0.0 4.0 0.00 0.34 0.00 81 1013.9
20260831071132 74 182 0.0 4.0 0.00 0.34 0.00 81 1013.9
20260831070812 74 176 0.0 2.0 0.00 0.34 0.00 81 1014.0
20260831070707 74 164 0.0 0.0 0.00 0.34 0.00 81 1014.0
20260831070602 74 164 0.0 0.0 0.00 0.34 0.00 81 1014.0
20260831070456 74 164 0.0 4.0 0.00 0.34 0.00 81 1014.0
20260831070132 74 226 0.0 4.0 0.00 0.34 0.00 82 1014.1
20260831070026 74 196 0.0 4.0 0.00 0.34 0.00 82 1014.1
20260831065442 73 179 0.0 0.0 0.00 0.34 0.00 82 1014.1
20260831065337 73 179 0.0 0.0 0.00 0.34 0.00 83 1014.1
20260831065231 73 216 0.0 0.0 0.00 0.34 0.00 83 1014.1
20260831065129 73 182 0.0 0.0 0.00 0.34 0.00 83 1014.2
20260831065023 73 181 0.0 0.0 0.00 0.34 0.00 83 1014.1
20260831064920 73 180 0.0 0.0 0.00 0.34 0.00 83 1014.2
20260831064812 73 180 0.0 0.0 0.00 0.34 0.00 83 1014.2
20260831064706 73 180 0.0 1.0 0.00 0.34 0.00 83 1014.2
20260831064604 73 180 0.0 1.0 0.00 0.34 0.00 84 1014.1
20260831064458 73 194 0.0 0.0 0.00 0.34 0.00 84 1014.1
20260831064352 72 196 0.0 0.0 0.00 0.34 0.00 84 1014.2
20260831064026 72 179 0.0 0.0 0.00 0.34 0.00 85 1014.2
20260831063920 72 177 0.0 0.0 0.00 0.34 0.00 85 1014.2
20260831063814 72 178 0.0 0.0 0.00 0.34 0.00 86 1014.2
20260831063711 72 178 0.0 0.0 0.00 0.34 0.00 86 1014.2
20260831063606 72 176 0.0 0.0 0.00 0.34 0.00 86 1014.2
20260831063503 71 176 0.0 0.0 0.00 0.34 0.00 86 1014.2
20260831063358 71 177 0.0 0.0 0.00 0.34 0.00 87 1014.2
20260831063253 71 177 0.0 0.0 0.00 0.34 0.00 87 1014.2
20260831063151 71 167 0.0 0.0 0.00 0.34 0.00 87 1014.2
20260831063049 71 167 0.0 0.0 0.00 0.34 0.00 88 1014.1
20260831062943 71 166 0.0 0.0 0.00 0.34 0.00 88 1014.1
20260831062836 71 166 0.0 0.0 0.00 0.34 0.00 88 1014.1
20260831062732 71 166 0.0 0.0 0.00 0.34 0.00 88 1014.2
20260831062630 71 166 0.0 0.0 0.00 0.34 0.00 88 1014.2
20260831062523 71 164 0.0 0.0 0.00 0.34 0.00 88 1014.1
20260831062420 71 163 0.0 0.0 0.00 0.34 0.00 88 1014.2
20260831062314 71 163 0.0 0.0 0.00 0.34 0.00 88 1014.1
20260831062208 70 163 0.0 0.0 0.00 0.34 0.00 88 1014.1
20260831061840 71 163 0.0 0.0 0.00 0.34 0.00 88 1014.3
20260831061733 71 163 0.0 0.0 0.00 0.34 0.00 88 1014.3
20260831061406 71 163 0.0 0.0 0.00 0.34 0.00 88 1014.4
20260831061300 71 163 0.0 0.0 0.00 0.34 0.00 88 1014.4
20260831061158 71 163 0.0 0.0 0.00 0.34 0.00 88 1014.4
20260831061051 71 163 0.0 0.0 0.00 0.34 0.00 87 1014.5
20260831060943 71 163 0.0 0.0 0.00 0.34 0.00 87 1014.4
20260831060838 71 163 0.0 0.0 0.00 0.34 0.00 87 1014.4
20260831060729 71 163 0.0 0.0 0.00 0.34 0.00 87 1014.4
20260831060406 71 163 0.0 0.0 0.00 0.34 0.00 87 1014.4
20260831060304 71 163 0.0 0.0 0.00 0.34 0.00 87 1014.4
20260831060202 71 163 0.0 0.0 0.00 0.34 0.00 87 1014.5
20260831060059 71 163 0.0 0.0 0.00 0.34 0.00 87 1014.5
20260831055952 71 163 0.0 0.0 0.00 0.34 0.00 87 1014.4
20260831055849 71 163 0.0 0.0 0.00 0.34 0.00 87 1014.4
20260831055743 71 163 0.0 0.0 0.00 0.34 0.00 86 1014.4
20260831055419 71 163 0.0 0.0 0.00 0.34 0.00 86 1014.3
20260831055313 71 163 0.0 0.0 0.00 0.34 0.00 86 1014.3
20260831055206 71 163 0.0 0.0 0.00 0.34 0.00 86 1014.3
20260831055104 71 163 0.0 0.0 0.00 0.34 0.00 86 1014.3
20260831055001 71 163 0.0 0.0 0.00 0.34 0.00 86 1014.3
20260831054636 71 163 0.0 0.0 0.00 0.34 0.00 85 1014.3
20260831054532 71 163 0.0 0.0 0.00 0.34 0.00 85 1014.3
20260831054429 72 163 0.0 0.0 0.00 0.34 0.00 86 1014.3
20260831054327 72 163 0.0 0.0 0.00 0.34 0.00 86 1014.3
20260831054223 72 163 0.0 0.0 0.00 0.34 0.00 85 1014.3
20260831054115 72 163 0.0 0.0 0.00 0.34 0.00 85 1014.3
20260831053748 72 163 0.0 0.0 0.00 0.34 0.00 85 1014.2
20260831053644 72 163 0.0 0.0 0.00 0.34 0.00 85 1014.2
20260831053538 72 163 0.0 0.0 0.00 0.34 0.00 85 1014.1
20260831053434 72 163 0.0 0.0 0.00 0.34 0.00 85 1014.1
20260831053330 72 163 0.0 0.0 0.00 0.34 0.00 85 1014.1
20260831053226 72 163 0.0 0.0 0.00 0.34 0.00 85 1014.1
20260831053123 72 163 0.0 0.0 0.00 0.34 0.00 85 1014.1
20260831053019 72 163 0.0 0.0 0.00 0.34 0.00 85 1014.1
20260831052916 72 163 0.0 0.0 0.00 0.34 0.00 85 1014.1
20260831052813 72 163 0.0 0.0 0.00 0.34 0.00 85 1014.2
20260831052710 72 163 0.0 0.0 0.00 0.34 0.00 85 1014.2
20260831052124 72 163 0.0 0.0 0.00 0.34 0.00 85 1014.1
20260831052022 72 163 0.0 0.0 0.00 0.34 0.00 85 1014.1
20260831051917 72 163 0.0 0.0 0.00 0.34 0.00 85 1014.1
20260831051815 72 163 0.0 0.0 0.00 0.34 0.00 85 1014.1
20260831051455 72 163 0.0 0.0 0.00 0.34 0.00 85 1013.9
20260831051351 72 163 0.0 0.0 0.00 0.34 0.00 85 1013.9
20260831051245 72 163 0.0 0.0 0.00 0.34 0.00 85 1013.9
20260831051137 72 163 0.0 0.0 0.00 0.34 0.00 85 1014.0
20260831051034 72 163 0.0 0.0 0.00 0.34 0.00 85 1013.9
20260831050929 72 163 0.0 0.0 0.00 0.34 0.00 85 1013.9
20260831050603 72 181 0.0 0.0 0.00 0.34 0.00 85 1013.9
20260831050501 72 181 0.0 0.0 0.00 0.34 0.00 85 1013.9
20260831050358 72 181 0.0 0.0 0.00 0.34 0.00 85 1013.9
20260831050256 72 181 0.0 0.0 0.00 0.34 0.00 85 1013.9
20260831050149 72 181 0.0 0.0 0.00 0.34 0.00 85 1014.0
20260831050042 72 181 0.0 0.0 0.00 0.34 0.00 85 1013.9
20260831045935 72 181 0.0 0.0 0.00 0.34 0.00 85 1014.0
20260831045616 72 181 0.0 0.0 0.00 0.34 0.00 85 1014.0
20260831045511 72 181 0.0 0.0 0.00 0.34 0.00 85 1014.0
20260831045406 72 181 0.0 0.0 0.00 0.34 0.00 85 1014.0
20260831045041 72 182 0.0 0.0 0.00 0.34 0.00 85 1014.1
20260831044938 72 182 0.0 0.0 0.00 0.34 0.00 85 1014.1
20260831044837 72 182 0.0 0.0 0.00 0.34 0.00 84 1014.1
20260831044732 72 182 0.0 0.0 0.00 0.34 0.00 84 1014.1
20260831044626 72 182 0.0 0.0 0.00 0.34 0.00 84 1014.1
20260831044521 72 182 0.0 0.0 0.00 0.34 0.00 84 1014.2
20260831044416 72 182 0.0 0.0 0.00 0.34 0.00 84 1014.2
20260831044309 72 182 0.0 0.0 0.00 0.34 0.00 84 1014.2
20260831044204 72 182 0.0 0.0 0.00 0.34 0.00 84 1014.2
20260831044058 72 182 0.0 0.0 0.00 0.34 0.00 84 1014.2
20260831043953 72 182 0.0 0.0 0.00 0.34 0.00 84 1014.2
20260831043847 72 182 0.0 0.0 0.00 0.34 0.00 84 1014.2
20260831043520 72 182 0.0 0.0 0.00 0.35 0.00 84 1014.2
20260831043413 72 182 0.0 0.0 0.00 0.35 0.00 84 1014.2
20260831043309 72 182 0.0 0.0 0.00 0.35 0.00 84 1014.3
20260831043207 72 195 0.0 0.0 0.00 0.35 0.00 84 1014.3
20260831043103 72 196 0.0 0.0 0.00 0.35 0.00 84 1014.3
20260831042957 72 196 0.0 0.0 0.00 0.35 0.00 84 1014.3
20260831042852 72 196 0.0 0.0 0.00 0.35 0.00 85 1014.3
20260831042746 72 196 0.0 0.0 0.00 0.35 0.00 85 1014.3
20260831042638 72 196 0.0 0.0 0.00 0.35 0.00 85 1014.4
20260831042536 72 196 0.0 0.0 0.00 0.35 0.00 85 1014.4
20260831042429 72 197 0.0 0.0 0.00 0.35 0.00 85 1014.4
20260831042105 72 196 0.0 0.0 0.00 0.35 0.00 85 1014.4
20260831042000 72 196 0.0 0.0 0.00 0.35 0.00 85 1014.4
20260831041853 72 196 0.0 0.0 0.00 0.35 0.00 85 1014.4
20260831041749 72 195 0.0 0.0 0.00 0.35 0.00 85 1014.4
20260831041645 72 194 0.0 5.0 0.00 0.35 0.00 86 1014.5
20260831040923 72 184 0.0 0.0 0.00 0.35 0.00 87 1014.4
20260831040817 72 186 0.0 0.0 0.00 0.35 0.00 87 1014.5
20260831040710 72 169 0.0 0.0 0.00 0.35 0.00 87 1014.4
20260831040604 72 195 0.0 0.0 0.00 0.35 0.00 87 1014.5
20260831040458 72 194 0.0 0.0 0.00 0.35 0.00 87 1014.5
20260831040352 72 210 0.0 0.0 0.00 0.35 0.00 87 1014.5
20260831040025 72 193 0.0 0.0 0.00 0.35 0.00 87 1014.4
20260831035918 72 193 0.0 0.0 0.00 0.35 0.35 87 1014.4
20260831035548 72 173 0.0 2.0 0.00 0.35 0.35 87 1014.4
20260831035444 72 213 0.0 0.0 0.00 0.35 0.35 87 1014.4
20260831035341 72 185 0.0 0.0 0.00 0.35 0.35 87 1014.4
20260831035233 72 175 0.0 0.0 0.00 0.35 0.35 88 1014.4
20260831034911 72 188 0.0 0.0 0.00 0.35 0.35 88 1014.4
20260831034807 71 188 0.0 0.0 0.00 0.35 0.35 88 1014.4
20260831034444 71 186 0.0 0.0 0.00 0.35 0.35 88 1014.5
20260831034341 71 187 0.0 0.0 0.00 0.35 0.35 88 1014.5
20260831034239 71 187 0.0 0.0 0.00 0.35 0.35 88 1014.5
20260831033914 71 188 0.0 0.0 0.00 0.35 0.35 89 1014.5
20260831033811 71 188 0.0 0.0 0.00 0.35 0.35 89 1014.5
20260831033709 71 188 0.0 0.0 0.00 0.35 0.35 89 1014.5
20260831033346 71 188 0.0 3.0 0.00 0.35 0.35 89 1014.5
20260831033244 71 188 0.0 3.0 0.00 0.35 0.35 89 1014.5
20260831033141 71 225 0.0 2.0 0.00 0.35 0.35 89 1014.5
20260831032819 71 167 0.0 0.0 0.00 0.35 0.35 89 1014.5
20260831032715 71 167 0.0 0.0 0.00 0.35 0.35 89 1014.5
20260831032611 71 144 0.0 0.0 0.00 0.35 0.35 89 1014.6
20260831032505 71 170 0.0 0.0 0.00 0.35 0.35 89 1014.5
20260831032402 71 171 0.0 0.0 0.00 0.35 0.35 89 1014.6
20260831032258 71 171 0.0 0.0 0.00 0.35 0.35 89 1014.6
20260831031719 71 171 0.0 0.0 0.00 0.35 0.35 89 1014.6
20260831031615 71 171 0.0 0.0 0.00 0.35 0.35 89 1014.6
20260831031038 71 165 0.0 0.0 0.00 0.35 0.35 89 1014.7
20260831030229 71 165 0.0 0.0 0.00 0.35 0.35 89 1014.7
20260831025901 71 165 0.0 0.0 0.00 0.35 0.35 89 1014.7
20260831025541 71 157 0.0 0.0 0.00 0.35 0.35 89 1014.7
20260831025438 71 157 0.0 0.0 0.00 0.35 0.35 89 1014.7
20260831025336 71 157 0.0 0.0 0.00 0.35 0.35 89 1014.6
20260831025233 71 157 0.0 0.0 0.00 0.35 0.35 89 1014.6
20260831025128 71 157 0.0 0.0 0.00 0.35 0.35 89 1014.6
20260831025022 71 157 0.0 0.0 0.00 0.35 0.35 89 1014.5
20260831024915 71 157 0.0 0.0 0.00 0.35 0.35 89 1014.5
20260831024329 71 157 0.0 0.0 0.00 0.35 0.35 89 1014.5
20260831024222 71 157 0.0 0.0 0.00 0.35 0.35 89 1014.5
20260831024117 71 157 0.0 0.0 0.00 0.35 0.35 89 1014.5
20260831023311 71 138 0.0 0.0 0.00 0.35 0.35 89 1014.3
20260831023207 71 192 0.0 0.0 0.00 0.35 0.35 89 1014.4
20260831023103 71 192 0.0 0.0 0.00 0.35 0.35 89 1014.3
20260831022515 71 193 0.0 0.0 0.00 0.35 0.35 89 1014.3
20260831021932 71 193 0.0 0.0 0.00 0.35 0.35 89 1014.2
20260831021829 71 191 0.0 0.0 0.00 0.35 0.35 89 1014.1
20260831021725 71 188 0.0 0.0 0.00 0.35 0.35 89 1014.2
20260831021358 71 188 0.0 0.0 0.00 0.35 0.35 89 1014.1
20260831021256 71 188 0.0 0.0 0.00 0.35 0.35 89 1014.1
20260831020933 71 146 0.0 0.0 0.00 0.35 0.35 89 1014.0
20260831020827 71 146 0.0 0.0 0.00 0.35 0.35 89 1014.0
20260831020723 71 148 0.0 0.0 0.00 0.35 0.35 89 1014.0
20260831020618 71 148 0.0 0.0 0.00 0.35 0.35 89 1014.0
20260831020513 71 148 0.0 0.0 0.00 0.35 0.35 89 1014.0
20260831020407 71 147 0.0 3.0 0.00 0.35 0.35 88 1014.1
20260831015826 71 155 0.0 0.0 0.00 0.35 0.35 88 1014.1
20260831015722 71 155 0.0 0.0 0.00 0.35 0.35 88 1014.1
20260831015354 71 155 0.0 0.0 0.00 0.35 0.35 88 1014.0
20260831015249 71 155 0.0 0.0 0.00 0.35 0.35 88 1014.0
20260831014925 71 155 0.0 0.0 0.00 0.35 0.35 88 1013.9
20260831014820 71 155 0.0 0.0 0.00 0.35 0.35 88 1014.0
20260831014457 71 143 0.0 0.0 0.00 0.35 0.35 88 1014.0
20260831014351 71 143 0.0 0.0 0.00 0.35 0.35 89 1014.0
20260831014246 71 142 0.0 0.0 0.00 0.35 0.35 88 1014.0
20260831014142 71 142 0.0 0.0 0.00 0.35 0.35 89 1013.9
20260831014036 71 142 0.0 0.0 0.00 0.35 0.35 89 1013.9
20260831013710 71 139 0.0 0.0 0.00 0.35 0.35 89 1013.8
20260831013603 71 139 0.0 0.0 0.00 0.35 0.35 89 1013.8
20260831013458 71 184 0.0 0.0 0.00 0.35 0.35 89 1013.8
20260831013356 71 184 0.0 0.0 0.00 0.35 0.35 89 1013.7
20260831013254 71 194 0.0 0.0 0.00 0.35 0.35 89 1013.8
20260831013150 71 195 0.0 0.0 0.00 0.35 0.35 89 1013.8
20260831013045 71 196 0.0 3.0 0.00 0.35 0.35 89 1013.7
20260831012943 71 196 0.0 3.0 0.00 0.35 0.35 89 1013.8
20260831012838 71 187 0.0 0.0 0.00 0.35 0.35 89 1013.8
20260831012732 71 188 0.0 2.0 0.00 0.35 0.35 89 1013.8
20260831012630 71 188 0.0 2.0 0.00 0.35 0.35 89 1013.8
20260831012525 71 188 0.0 2.0 0.00 0.35 0.35 89 1013.8
20260831012419 71 181 0.0 0.0 0.00 0.35 0.35 89 1013.8
20260831012314 71 181 0.0 0.0 0.00 0.35 0.35 89 1013.8
20260831012206 71 182 0.0 0.0 0.00 0.35 0.35 89 1013.8
20260831012103 71 183 0.0 0.0 0.00 0.35 0.35 89 1013.8
20260831011959 71 175 0.0 0.0 0.00 0.35 0.35 89 1013.8
20260831011856 71 151 0.0 0.0 0.00 0.35 0.35 89 1013.8
20260831011752 71 151 0.0 0.0 0.00 0.35 0.35 89 1013.8
20260831011422 71 180 0.0 0.0 0.00 0.35 0.35 89 1013.7
20260831011318 71 157 0.0 0.0 0.00 0.35 0.35 89 1013.7
20260831011213 71 156 0.0 0.0 0.00 0.35 0.35 89 1013.7
20260831011107 71 157 0.0 0.0 0.00 0.35 0.35 89 1013.7
20260831011002 71 157 0.0 0.0 0.00 0.35 0.35 89 1013.7
20260831010858 71 157 0.0 0.0 0.00 0.35 0.35 89 1013.7
20260831010752 71 194 0.0 1.0 0.00 0.35 0.35 89 1013.7
20260831010650 71 191 0.0 0.0 0.00 0.35 0.35 89 1013.7
20260831010546 71 156 0.0 0.0 0.00 0.35 0.35 88 1013.7
20260831005957 71 156 0.0 0.0 0.00 0.35 0.35 89 1013.7
20260831005852 71 156 0.0 0.0 0.00 0.35 0.35 88 1013.6
20260831005747 71 156 0.0 0.0 0.00 0.35 0.35 88 1013.6
20260831005423 71 175 0.0 0.0 0.00 0.35 0.35 88 1013.5
20260831005319 71 175 0.0 0.0 0.00 0.35 0.35 88 1013.5
20260831005215 71 179 0.0 0.0 0.00 0.35 0.35 88 1013.5
20260831005108 71 179 0.0 0.0 0.00 0.35 0.35 88 1013.5
20260831005006 71 178 0.0 2.0 0.00 0.35 0.35 88 1013.5
20260831004900 71 178 0.0 2.0 0.00 0.35 0.35 88 1013.4
20260831004755 71 138 0.0 0.0 0.00 0.35 0.35 88 1013.4
20260831004648 71 155 0.0 0.0 0.00 0.35 0.35 88 1013.4
20260831004544 71 155 0.0 0.0 0.00 0.35 0.35 88 1013.4
20260831004221 71 157 0.0 0.0 0.00 0.35 0.35 88 1013.4
20260831004114 71 158 0.0 2.0 0.00 0.35 0.35 88 1013.4
20260831004009 71 173 0.0 2.0 0.00 0.35 0.35 88 1013.4
20260831003907 71 159 0.0 2.0 0.00 0.35 0.35 88 1013.4
20260831003803 71 167 0.0 2.0 0.00 0.35 0.35 88 1013.4
20260831003657 71 188 0.0 1.0 0.00 0.35 0.35 88 1013.4
20260831003550 71 186 0.0 2.0 0.00 0.35 0.35 88 1013.4
20260831003006 71 153 0.0 0.0 0.00 0.35 0.35 88 1013.4
20260831002903 71 153 0.0 1.0 0.00 0.35 0.35 88 1013.4
20260831002759 71 153 0.0 1.0 0.00 0.35 0.35 88 1013.4
20260831002652 71 142 0.0 0.0 0.00 0.35 0.35 88 1013.4
20260831002547 71 153 0.0 0.0 0.00 0.35 0.35 88 1013.4
20260831002441 71 153 0.0 1.0 0.00 0.35 0.35 88 1013.3
20260831002335 71 154 0.0 1.0 0.00 0.35 0.35 88 1013.3
20260831002229 72 158 0.0 0.0 0.00 0.35 0.35 88 1013.4
20260831002123 72 158 0.0 0.0 0.00 0.35 0.35 88 1013.4
20260831002020 72 155 0.0 0.0 0.00 0.35 0.35 87 1013.4
20260831001917 72 155 0.0 0.0 0.00 0.35 0.35 87 1013.4
20260831001812 72 155 0.0 0.0 0.00 0.35 0.35 87 1013.4
20260831001706 72 155 0.0 1.0 0.00 0.35 0.35 87 1013.4
20260831001600 72 154 0.0 0.0 0.00 0.35 0.35 87 1013.4
20260831001457 72 155 0.0 0.0 0.00 0.35 0.35 87 1013.5
20260831001351 72 157 0.0 0.0 0.00 0.35 0.35 87 1013.5
20260831001248 72 163 0.0 0.0 0.00 0.35 0.35 87 1013.5
20260831001140 72 163 0.0 0.0 0.00 0.35 0.35 87 1013.4
20260831001036 72 160 0.0 0.0 0.00 0.35 0.35 87 1013.5
20260831000933 72 160 0.0 0.0 0.00 0.35 0.35 87 1013.5
20260831000831 72 160 0.0 0.0 0.00 0.35 0.35 87 1013.5
20260831000728 72 157 0.0 3.0 0.00 0.35 0.35 87 1013.5
20260831000403 72 162 0.0 0.0 0.00 0.35 0.35 87 1013.5
20260831000036 72 140 0.0 4.0 0.00 0.35 0.35 87 1013.4
20260830235928 72 135 0.0 4.0 0.00 0.35 0.35 87 1013.4
20260830235824 72 149 0.0 4.0 0.00 0.35 0.35 87 1013.4
20260830235504 72 136 0.0 3.0 0.00 0.35 0.35 87 1013.5
20260830235358 72 136 0.0 3.0 0.00 0.35 0.35 87 1013.4
20260830235252 72 149 0.0 3.0 0.00 0.35 0.35 87 1013.5
20260830235146 72 146 0.0 3.0 0.00 0.35 0.35 87 1013.5
20260830234827 72 162 0.0 1.0 0.00 0.35 0.35 87 1013.5
20260830234724 72 158 0.0 0.0 0.00 0.35 0.35 87 1013.6
20260830234620 72 159 0.0 0.0 0.00 0.35 0.35 87 1013.6
20260830234516 72 155 0.0 0.0 0.00 0.35 0.35 87 1013.6
20260830234413 72 155 0.0 0.0 0.00 0.35 0.35 87 1013.6
20260830234309 72 155 0.0 0.0 0.00 0.35 0.35 87 1013.7
20260830234205 72 157 0.0 0.0 0.00 0.35 0.35 87 1013.6
20260830234102 72 157 0.0 1.0 0.00 0.35 0.35 87 1013.6
20260830233738 72 175 0.0 0.0 0.00 0.35 0.35 87 1013.7
20260830233412 72 163 0.0 0.0 0.00 0.35 0.35 87 1013.7
20260830233308 72 164 0.0 0.0 0.00 0.35 0.35 86 1013.7
20260830233203 72 164 0.0 0.0 0.00 0.35 0.35 87 1013.8
20260830233100 72 164 0.0 0.0 0.00 0.35 0.35 87 1013.8
20260830232954 72 164 0.0 0.0 0.00 0.35 0.35 87 1013.8
20260830232851 72 164 0.0 0.0 0.00 0.35 0.35 86 1013.8
20260830232744 72 163 0.0 0.0 0.00 0.35 0.35 86 1013.8
20260830232637 73 163 0.0 0.0 0.00 0.35 0.35 86 1013.8
20260830232309 73 164 0.0 0.0 0.00 0.35 0.35 86 1013.8
20260830232205 73 173 0.0 0.0 0.00 0.35 0.35 86 1013.8
20260830232103 73 173 0.0 0.0 0.00 0.35 0.35 86 1013.8
20260830231956 73 178 0.0 0.0 0.00 0.35 0.35 86 1013.8
20260830231851 73 178 0.0 0.0 0.00 0.35 0.35 86 1013.9
20260830231750 73 178 0.0 1.0 0.00 0.35 0.35 86 1013.9
20260830231647 73 200 0.0 1.0 0.00 0.35 0.35 86 1013.9
20260830231541 73 150 0.0 0.0 0.00 0.35 0.35 86 1013.8
20260830231436 73 150 0.0 0.0 0.00 0.35 0.35 86 1013.9
20260830231333 73 173 0.0 1.0 0.00 0.35 0.35 86 1013.9
20260830231229 73 178 0.0 1.0 0.00 0.35 0.35 86 1013.9
20260830231122 73 157 0.0 0.0 0.00 0.35 0.35 86 1013.9
20260830231019 73 157 0.0 0.0 0.00 0.35 0.35 86 1013.9
20260830230213 73 159 0.0 0.0 0.00 0.35 0.35 86 1013.9
20260830225845 73 145 0.0 0.0 0.00 0.35 0.35 86 1013.9
20260830225741 73 144 0.0 0.0 0.00 0.35 0.35 86 1014.0
20260830225639 73 152 0.0 0.0 0.00 0.35 0.35 86 1014.0
20260830225535 73 152 0.0 0.0 0.00 0.35 0.35 86 1014.0
20260830225432 73 152 0.0 0.0 0.00 0.35 0.35 86 1014.0
20260830225326 73 152 0.0 0.0 0.00 0.35 0.35 86 1013.9
20260830225004 73 152 0.0 0.0 0.00 0.35 0.35 86 1014.0
20260830224643 73 153 0.0 2.0 0.00 0.35 0.35 86 1013.9
20260830224536 73 154 0.0 2.0 0.00 0.35 0.35 86 1013.9
20260830224434 73 154 0.0 2.0 0.00 0.35 0.35 86 1013.9
20260830224330 73 128 0.0 0.0 0.00 0.35 0.35 86 1014.0
20260830224227 73 162 0.0 0.0 0.00 0.35 0.35 86 1014.0
20260830224125 73 141 0.0 0.0 0.00 0.35 0.35 86 1014.0
20260830224020 73 140 0.0 0.0 0.00 0.35 0.35 86 1014.0
20260830223650 73 148 0.0 3.0 0.00 0.35 0.35 86 1014.1
20260830223548 73 148 0.0 3.0 0.00 0.35 0.35 87 1014.1
20260830223444 73 145 0.0 0.0 0.00 0.35 0.35 86 1014.1
20260830223340 73 145 0.0 0.0 0.00 0.35 0.35 87 1014.1
20260830223237 73 143 0.0 0.0 0.00 0.35 0.35 87 1014.1
20260830223130 73 144 0.0 0.0 0.00 0.35 0.35 87 1014.1
20260830223025 73 144 0.0 0.0 0.00 0.35 0.35 87 1014.1
20260830222921 73 144 0.0 0.0 0.00 0.35 0.35 87 1014.1
20260830222818 73 144 0.0 0.0 0.00 0.35 0.35 87 1014.1
20260830222454 73 115 0.0 0.0 0.00 0.35 0.35 87 1014.2
20260830222349 73 115 0.0 0.0 0.00 0.35 0.35 88 1014.1
20260830222247 73 115 0.0 0.0 0.00 0.35 0.35 88 1014.2
20260830222140 73 115 0.0 0.0 0.00 0.35 0.35 88 1014.2
20260830222035 73 115 0.0 0.0 0.00 0.35 0.35 88 1014.2
20260830221928 73 115 0.0 0.0 0.00 0.35 0.35 88 1014.2
20260830221822 73 115 0.0 0.0 0.00 0.35 0.35 88 1014.2
20260830221714 73 115 0.0 0.0 0.00 0.35 0.35 88 1014.2
20260830221352 73 115 0.0 0.0 0.00 0.35 0.35 88 1014.2
20260830221247 73 115 0.0 0.0 0.00 0.35 0.35 88 1014.2
20260830221140 73 115 0.0 0.0 0.00 0.35 0.35 88 1014.2
20260830221035 73 115 0.0 0.0 0.00 0.35 0.35 88 1014.2
20260830220928 73 114 0.0 0.0 0.00 0.35 0.35 88 1014.2
20260830220823 73 114 0.0 0.0 0.00 0.35 0.35 88 1014.2
20260830220716 73 113 0.0 0.0 0.00 0.35 0.35 88 1014.2
20260830220609 73 113 0.0 0.0 0.00 0.35 0.35 88 1014.2
20260830220506 73 113 0.0 0.0 0.00 0.35 0.35 88 1014.3
20260830220401 73 113 0.0 0.0 0.00 0.35 0.35 88 1014.3
20260830220038 72 111 0.0 0.0 0.00 0.35 0.35 89 1014.4
20260830215709 72 111 0.0 0.0 0.00 0.35 0.35 88 1014.5
20260830215605 72 111 0.0 0.0 0.00 0.35 0.35 88 1014.5
20260830215503 72 111 0.0 0.0 0.00 0.35 0.35 88 1014.5
20260830215355 72 111 0.0 0.0 0.00 0.35 0.35 88 1014.5
20260830215025 72 111 0.0 0.0 0.00 0.35 0.35 88 1014.5
20260830214921 72 111 0.0 0.0 0.00 0.35 0.35 88 1014.5
20260830214814 72 111 0.0 0.0 0.00 0.35 0.35 88 1014.5
20260830214707 72 111 0.0 0.0 0.00 0.35 0.35 88 1014.5
20260830214601 72 111 0.0 0.0 0.00 0.35 0.35 88 1014.4
20260830214459 72 111 0.0 0.0 0.00 0.35 0.35 88 1014.5
20260830214355 72 111 0.0 0.0 0.00 0.35 0.35 88 1014.4
20260830214248 72 111 0.0 0.0 0.00 0.35 0.35 88 1014.4
20260830214144 72 111 0.0 0.0 0.00 0.35 0.35 88 1014.4
20260830214037 72 111 0.0 0.0 0.00 0.35 0.35 88 1014.4
20260830213931 72 111 0.0 0.0 0.00 0.35 0.35 88 1014.4
20260830213827 72 111 0.0 0.0 0.00 0.35 0.35 88 1014.4
20260830213722 72 111 0.0 0.0 0.00 0.35 0.35 88 1014.4
20260830213616 72 111 0.0 0.0 0.00 0.35 0.35 88 1014.4
20260830213514 72 111 0.0 0.0 0.00 0.35 0.35 88 1014.4
20260830213406 72 111 0.0 0.0 0.00 0.35 0.35 87 1014.4
20260830213304 72 111 0.0 0.0 0.00 0.35 0.35 87 1014.4
20260830213158 72 111 0.0 0.0 0.00 0.35 0.35 87 1014.3
20260830212832 72 111 0.0 0.0 0.00 0.35 0.35 87 1014.3
20260830212724 72 111 0.0 0.0 0.00 0.35 0.35 87 1014.2
20260830212618 72 111 0.0 0.0 0.00 0.35 0.35 86 1014.3
20260830212512 72 198 0.0 0.0 0.00 0.35 0.35 86 1014.3
20260830212147 72 198 0.0 0.0 0.00 0.35 0.35 86 1014.3
20260830212044 72 198 0.0 0.0 0.00 0.35 0.35 86 1014.2
20260830211939 72 198 0.0 0.0 0.00 0.35 0.35 86 1014.3
20260830211615 73 198 0.0 0.0 0.04 0.35 0.35 85 1014.3
20260830211513 73 198 0.0 0.0 0.04 0.35 0.35 84 1014.3
20260830211410 73 198 0.0 0.0 0.04 0.35 0.35 84 1014.3
20260830211303 73 198 0.0 0.0 0.05 0.35 0.35 83 1014.4
20260830211156 73 198 0.0 0.0 0.05 0.35 0.35 83 1014.3
20260830211052 73 198 0.0 0.0 0.05 0.35 0.35 83 1014.3
20260830210944 73 198 0.0 0.0 0.06 0.35 0.35 83 1014.2
20260830210837 73 198 0.0 0.0 0.06 0.35 0.35 82 1014.1
20260830210729 73 198 0.0 0.0 0.08 0.35 0.35 81 1014.2
20260830210621 73 198 0.0 0.0 0.09 0.35 0.35 81 1014.2
20260830210254 74 198 0.0 0.0 0.20 0.35 0.35 79 1014.2
20260830210149 74 198 0.0 0.0 0.30 0.35 0.35 78 1014.1
20260830210042 74 198 0.0 0.0 0.31 0.35 0.35 78 1014.1
20260830205939 74 198 0.0 0.0 0.35 0.33 0.34 78 1014.1
20260830205836 74 198 0.0 0.0 0.38 0.33 0.34 78 1014.0
20260830205510 74 200 0.0 0.0 0.00 0.32 0.32 76 1014.0
20260830205145 74 218 0.0 1.0 0.00 0.32 0.32 76 1014.0
20260830204820 74 184 0.0 2.0 0.00 0.32 0.32 75 1014.0
20260830204717 74 232 0.0 0.0 0.00 0.32 0.32 75 1014.0
20260830204614 74 233 0.0 0.0 0.00 0.32 0.32 75 1014.0
20260830204512 74 281 0.0 0.0 0.00 0.32 0.32 75 1014.0
20260830204407 74 282 0.0 0.0 0.00 0.32 0.32 75 1014.0
20260830204302 74 180 0.0 0.0 0.00 0.32 0.32 75 1014.0
20260830204159 74 178 0.0 3.0 0.00 0.32 0.32 75 1014.0
20260830204056 74 230 0.0 3.0 0.00 0.32 0.32 75 1013.9
20260830203953 74 189 0.0 3.0 0.00 0.32 0.32 75 1013.9
20260830203845 75 190 0.0 3.0 0.00 0.32 0.32 76 1013.9
20260830203742 75 185 0.0 3.0 0.00 0.32 0.32 76 1013.8
20260830203638 75 275 0.0 3.0 0.00 0.32 0.32 76 1013.8
20260830203534 75 152 0.0 3.0 0.00 0.32 0.32 76 1013.8
20260830202946 75 200 0.0 3.0 0.00 0.32 0.32 77 1013.8
20260830202839 75 157 0.0 3.0 0.00 0.32 0.32 77 1013.8
20260830202736 75 191 0.0 2.0 0.00 0.32 0.32 77 1013.8
20260830202634 75 190 0.0 2.0 0.00 0.32 0.32 77 1013.8
20260830202309 75 219 0.0 2.0 0.00 0.32 0.32 79 1013.6
20260830202205 75 171 0.0 0.0 0.00 0.32 0.32 79 1013.6
20260830202102 75 171 0.0 6.0 0.00 0.32 0.32 79 1013.7
20260830201959 75 175 0.0 6.0 0.00 0.32 0.32 79 1013.6
20260830201852 75 172 0.0 6.0 0.00 0.32 0.32 78 1013.6
20260830201749 75 172 0.0 6.0 0.00 0.32 0.32 78 1013.6
20260830201645 74 178 0.0 6.0 0.00 0.32 0.32 78 1013.6
20260830201542 75 173 0.0 3.0 0.00 0.32 0.32 79 1013.5
20260830201435 75 176 0.0 3.0 0.00 0.32 0.32 79 1013.5
20260830201329 74 178 0.0 3.0 0.00 0.32 0.32 80 1013.5
20260830201223 74 161 0.0 0.0 0.00 0.32 0.32 80 1013.5
20260830201117 74 187 0.0 0.0 0.00 0.32 0.32 80 1013.5
20260830201015 74 191 0.0 0.0 0.00 0.32 0.32 80 1013.5
20260830200646 74 171 0.0 4.0 0.00 0.32 0.32 79 1013.5
20260830200542 74 189 0.0 0.0 0.00 0.32 0.32 80 1013.5
20260830200436 74 175 0.0 7.0 0.00 0.32 0.32 79 1013.5
20260830200329 74 205 0.0 7.0 0.00 0.32 0.32 80 1013.5
20260830200225 74 218 0.0 7.0 0.00 0.32 0.32 80 1013.5
20260830195856 75 155 0.0 6.0 0.00 0.32 0.32 80 1013.5
20260830195753 74 150 0.0 6.0 0.00 0.32 0.32 81 1013.4
20260830195651 74 186 0.0 6.0 0.00 0.32 0.32 80 1013.5
20260830195324 74 190 0.0 6.0 0.00 0.32 0.32 81 1013.5
20260830195220 74 167 0.0 6.0 0.00 0.32 0.32 82 1013.6
20260830195114 74 182 0.0 2.0 0.00 0.32 0.32 81 1013.6
20260830195011 74 210 0.0 2.0 0.00 0.32 0.32 81 1013.6
20260830194908 74 188 0.0 4.0 0.00 0.32 0.32 81 1013.7
20260830194802 74 171 0.0 4.0 0.00 0.32 0.32 81 1013.7
20260830194434 74 169 0.0 4.0 0.00 0.32 0.32 81 1013.7
20260830194328 74 150 0.0 4.0 0.00 0.32 0.32 81 1013.7
20260830194003 74 204 0.0 3.0 0.00 0.32 0.32 81 1013.8
20260830193858 74 202 0.0 0.0 0.00 0.32 0.32 82 1013.8
20260830193753 74 188 0.0 0.0 0.00 0.32 0.32 82 1013.7
20260830193426 74 196 0.0 6.0 0.00 0.32 0.32 82 1013.7
20260830193320 74 207 0.0 0.0 0.00 0.32 0.32 82 1013.7
20260830193213 74 192 0.0 0.0 0.00 0.32 0.32 83 1013.7
20260830193110 74 221 0.0 4.0 0.00 0.32 0.32 83 1013.7
20260830193004 74 187 0.0 4.0 0.00 0.32 0.32 83 1013.7
20260830192857 74 193 0.0 4.0 0.00 0.32 0.32 83 1013.7
20260830192754 74 188 0.0 1.0 0.00 0.32 0.32 83 1013.6
20260830192651 74 177 0.0 0.0 0.00 0.32 0.32 83 1013.6
20260830192546 74 171 1.0 10.0 0.00 0.32 0.32 83 1013.6
20260830192444 74 193 0.0 10.0 0.00 0.32 0.32 83 1013.6
20260830192337 73 204 0.0 10.0 0.00 0.32 0.32 84 1013.6
20260830192230 73 230 0.0 10.0 0.00 0.32 0.32 84 1013.6
20260830192123 73 183 0.0 10.0 0.00 0.32 0.32 84 1013.6
20260830192018 73 186 1.0 10.0 0.00 0.32 0.32 84 1013.6
20260830191654 73 180 1.0 10.0 0.00 0.32 0.32 84 1013.5
20260830191550 73 188 1.0 10.0 0.00 0.32 0.32 85 1013.6
20260830191445 73 189 1.0 10.0 0.00 0.32 0.32 84 1013.5
20260830191343 73 174 1.0 10.0 0.00 0.32 0.32 84 1013.6
20260830191236 73 186 1.0 6.0 0.00 0.32 0.32 84 1013.6
20260830191129 73 205 0.0 6.0 0.00 0.32 0.32 85 1013.6
20260830190759 72 198 0.0 6.0 0.00 0.32 0.32 85 1013.6
20260830190439 72 232 0.0 4.0 0.00 0.32 0.32 85 1013.6
20260830190333 72 136 0.0 1.0 0.00 0.32 0.32 85 1013.6
20260830190228 72 136 0.0 7.0 0.00 0.32 0.32 85 1013.7
20260830190125 72 184 0.0 7.0 0.00 0.32 0.32 84 1013.7
20260830190018 72 196 0.0 7.0 0.00 0.32 0.32 85 1013.7
20260830185915 72 126 0.0 6.0 0.00 0.32 0.32 85 1013.7
20260830185556 72 190 0.0 3.0 0.00 0.32 0.32 86 1013.7
20260830185450 72 209 0.0 3.0 0.00 0.32 0.32 86 1013.7
20260830185342 72 169 0.0 8.0 0.00 0.32 0.32 86 1013.7
20260830185238 72 198 0.0 8.0 0.00 0.32 0.32 86 1013.7
20260830185133 72 189 0.0 5.0 0.00 0.32 0.32 86 1013.7
20260830185030 72 169 0.0 5.0 0.00 0.32 0.32 86 1013.7
20260830184922 72 182 0.0 0.0 0.00 0.32 0.32 87 1013.7
20260830184816 72 178 0.0 0.0 0.00 0.32 0.32 86 1013.8
20260830184711 72 179 0.0 6.0 0.00 0.32 0.32 86 1013.8
20260830184345 71 179 0.0 6.0 0.00 0.32 0.32 86 1013.8
20260830184239 71 132 0.0 6.0 0.00 0.32 0.32 87 1013.7
20260830183914 71 187 0.0 6.0 0.00 0.32 0.32 87 1013.7
20260830183812 71 148 0.0 1.0 0.00 0.32 0.32 88 1013.7
20260830183710 71 148 0.0 1.0 0.00 0.32 0.32 88 1013.8
20260830183603 71 156 0.0 0.0 0.00 0.32 0.32 88 1013.9
20260830183500 71 152 0.0 0.0 0.00 0.32 0.32 87 1013.9
20260830183357 71 152 0.0 3.0 0.00 0.32 0.32 87 1014.0
20260830183255 71 157 0.0 3.0 0.00 0.32 0.32 88 1014.0
20260830183147 71 177 0.0 3.0 0.00 0.32 0.32 88 1014.0
20260830183046 71 192 0.0 3.0 0.00 0.32 0.32 89 1014.0
20260830182722 70 167 0.0 0.0 0.00 0.32 0.32 88 1013.9
20260830182617 70 167 0.0 3.0 0.00 0.32 0.32 87 1014.0
20260830182513 70 168 0.0 3.0 0.00 0.32 0.32 87 1014.0
20260830182405 70 180 0.0 2.0 0.00 0.32 0.32 87 1014.1
20260830182037 70 143 0.0 4.0 0.00 0.32 0.32 87 1014.1
20260830181714 70 184 0.0 7.0 0.00 0.32 0.32 87 1014.1
20260830181609 70 162 0.0 7.0 0.00 0.32 0.32 87 1014.0
20260830181504 70 150 0.0 7.0 0.00 0.32 0.32 87 1014.0
20260830181359 70 153 0.0 7.0 0.00 0.32 0.32 88 1014.1
20260830180818 70 151 0.0 6.0 0.00 0.32 0.32 88 1014.2
20260830180714 70 153 0.0 6.0 0.00 0.32 0.32 88 1014.2
20260830180611 70 132 0.0 6.0 0.00 0.32 0.32 88 1014.2
20260830180246 70 188 1.0 7.0 0.00 0.32 0.32 88 1014.2
20260830180144 70 187 1.0 7.0 0.00 0.32 0.32 88 1014.1
20260830180042 70 163 1.0 7.0 0.00 0.32 0.32 88 1014.2
20260830175939 70 155 1.0 7.0 0.00 0.32 0.32 88 1014.1
20260830175836 70 196 1.0 7.0 0.00 0.32 0.32 88 1014.2
20260830175731 70 163 0.0 7.0 0.00 0.32 0.32 89 1014.2
20260830175624 70 154 0.0 7.0 0.00 0.32 0.32 88 1014.2
20260830175257 70 146 0.0 6.0 0.00 0.32 0.32 89 1014.2
20260830175152 70 130 0.0 6.0 0.00 0.32 0.32 89 1014.2
20260830175045 70 184 0.0 6.0 0.00 0.32 0.32 89 1014.2
20260830174943 70 180 0.0 6.0 0.00 0.32 0.32 89 1014.2
20260830174837 70 153 0.0 6.0 0.00 0.32 0.32 89 1014.2
20260830174517 71 162 0.0 6.0 0.00 0.32 0.32 90 1014.2
20260830174411 71 143 0.0 1.0 0.00 0.32 0.32 90 1014.2
20260830174308 70 144 0.0 0.0 0.00 0.32 0.32 90 1014.2
20260830174205 70 144 0.0 0.0 0.00 0.32 0.32 90 1014.3
20260830174058 70 143 0.0 7.0 0.00 0.32 0.32 89 1014.3
20260830173952 70 144 0.0 7.0 0.00 0.32 0.32 89 1014.3
20260830173850 70 169 0.0 7.0 0.00 0.32 0.32 89 1014.5
20260830173742 70 164 0.0 7.0 0.00 0.32 0.32 89 1014.5
20260830173637 70 155 0.0 7.0 0.00 0.32 0.32 90 1014.5
20260830173534 70 209 0.0 7.0 0.00 0.32 0.32 90 1014.5
20260830173429 70 136 0.0 1.0 0.00 0.32 0.32 90 1014.6
20260830173103 70 192 0.0 4.0 0.00 0.32 0.32 90 1014.8
20260830172956 70 167 0.0 4.0 0.00 0.32 0.32 90 1014.8
20260830172630 70 164 0.0 4.0 0.00 0.32 0.32 90 1014.9
20260830172525 70 170 0.0 4.0 0.00 0.32 0.32 90 1014.9
20260830172422 70 171 0.0 4.0 0.00 0.32 0.32 90 1014.9
20260830172315 70 164 0.0 4.0 0.00 0.32 0.32 90 1015.0
20260830172213 70 181 0.0 4.0 0.00 0.32 0.32 90 1015.0
20260830172109 70 182 0.0 4.0 0.00 0.32 0.32 91 1015.0
20260830171748 70 150 0.0 4.0 0.00 0.32 0.32 91 1015.0
20260830171642 70 169 0.0 2.0 0.00 0.32 0.32 91 1015.1
20260830171538 70 146 0.0 2.0 0.00 0.32 0.32 91 1015.0
20260830171434 70 142 0.0 1.0 0.00 0.32 0.32 91 1015.1
20260830171330 70 153 0.0 1.0 0.00 0.32 0.32 91 1015.1
20260830171224 70 176 0.0 4.0 0.00 0.32 0.32 91 1015.2
20260830171121 70 180 0.0 4.0 0.00 0.32 0.32 91 1015.3
20260830171018 70 187 0.0 1.0 0.00 0.32 0.32 91 1015.3
20260830170656 69 180 0.0 3.0 0.00 0.32 0.32 92 1015.4
20260830170552 69 170 0.0 0.0 0.00 0.32 0.32 92 1015.4
20260830170445 69 170 0.0 0.0 0.00 0.32 0.32 91 1015.5
20260830170121 69 146 0.0 0.0 0.00 0.32 0.32 91 1015.4
20260830170017 69 144 0.0 0.0 0.00 0.32 0.32 91 1015.4
20260830165914 69 138 0.0 0.0 0.00 0.32 0.32 91 1015.4
20260830165809 69 157 0.0 0.0 0.00 0.32 0.32 91 1015.4
20260830165703 69 156 0.0 0.0 0.00 0.32 0.32 91 1015.3
20260830165601 69 156 0.0 0.0 0.00 0.32 0.32 92 1015.3
20260830165237 69 156 0.0 0.0 0.00 0.32 0.32 92 1015.4
20260830165132 69 155 0.0 0.0 0.00 0.32 0.32 92 1015.4
20260830165026 68 155 0.0 0.0 0.00 0.32 0.32 92 1015.4
20260830164923 68 155 0.0 0.0 0.00 0.32 0.32 91 1015.5
20260830164556 68 171 0.0 0.0 0.00 0.32 0.32 91 1015.6
20260830164449 68 171 0.0 0.0 0.00 0.32 0.32 91 1015.7
20260830164343 68 171 0.0 0.0 0.00 0.32 0.32 91 1015.7
20260830163802 68 180 0.0 1.0 0.00 0.32 0.32 91 1015.9
20260830163655 68 177 0.0 1.0 0.00 0.32 0.32 91 1015.9
20260830163334 68 175 0.0 4.0 0.00 0.32 0.32 91 1015.9
20260830163228 68 175 0.0 4.0 0.00 0.32 0.32 91 1015.9
20260830163122 68 192 0.0 4.0 0.00 0.32 0.32 91 1015.9
20260830163017 68 198 0.0 4.0 0.00 0.32 0.32 91 1015.9
20260830162654 68 185 0.0 3.0 0.00 0.31 0.31 91 1015.8
20260830162548 68 184 0.0 3.0 0.00 0.31 0.31 91 1015.8
20260830162442 68 191 0.0 0.0 0.00 0.31 0.31 92 1015.8
20260830162339 68 171 0.0 6.0 0.00 0.31 0.31 92 1015.9
20260830162236 68 178 0.0 6.0 0.00 0.31 0.31 92 1015.9
20260830161910 68 171 0.0 0.0 0.00 0.31 0.31 92 1015.9
20260830161806 68 157 0.0 0.0 0.00 0.31 0.31 92 1015.9
20260830161703 68 154 0.0 6.0 0.00 0.31 0.31 92 1016.0
20260830161559 68 235 0.0 6.0 0.00 0.31 0.31 92 1016.0
20260830161452 68 277 0.0 6.0 0.00 0.31 0.31 92 1016.0
20260830161128 68 213 0.0 5.0 0.00 0.31 0.31 92 1016.0
20260830161022 68 223 0.0 5.0 0.00 0.31 0.31 93 1016.1
20260830160658 68 151 0.0 2.0 0.00 0.31 0.31 92 1016.1
20260830160551 68 211 0.0 0.0 0.00 0.31 0.31 93 1016.2
20260830160443 68 189 0.0 3.0 0.00 0.31 0.31 93 1016.2
20260830160336 68 196 0.0 3.0 0.00 0.31 0.31 93 1016.2
20260830155748 68 252 0.0 4.0 0.00 0.29 0.30 93 1016.3
20260830155640 68 202 0.0 3.0 0.00 0.29 0.30 93 1016.3
20260830155312 68 146 0.0 0.0 0.04 0.29 0.30 93 1016.3
20260830155210 68 195 0.0 0.0 0.04 0.29 0.30 93 1016.3
20260830154843 68 195 0.0 0.0 0.05 0.29 0.30 93 1016.5
20260830154740 68 194 0.0 0.0 0.06 0.29 0.30 93 1016.5
20260830154633 68 194 0.0 0.0 0.06 0.29 0.30 93 1016.5
20260830154525 68 194 0.0 1.0 0.06 0.29 0.30 93 1016.6
20260830154421 68 194 0.0 1.0 0.08 0.29 0.30 93 1016.5
20260830154317 68 205 0.0 1.0 0.09 0.29 0.30 93 1016.5
20260830154211 68 205 0.0 0.0 0.10 0.29 0.30 93 1016.5
20260830153849 68 196 0.0 4.0 0.10 0.29 0.30 93 1016.5
20260830153525 67 180 0.0 4.0 0.10 0.29 0.28 93 1016.5
20260830153421 67 183 0.0 4.0 0.10 0.29 0.28 93 1016.5
20260830153319 67 187 0.0 4.0 0.10 0.29 0.28 93 1016.6
20260830153211 67 175 0.0 4.0 0.10 0.29 0.28 93 1016.6
20260830153107 67 175 0.0 4.0 0.10 0.27 0.28 93 1016.6
20260830153002 67 194 0.0 4.0 0.10 0.27 0.27 93 1016.6
20260830152859 67 194 0.0 4.0 0.13 0.27 0.27 93 1016.7
20260830152751 67 188 0.0 2.0 0.17 0.27 0.27 93 1016.7
20260830152644 67 190 0.0 2.0 0.20 0.27 0.27 93 1016.8
20260830152538 67 202 0.0 2.0 0.20 0.27 0.27 93 1016.8
20260830152209 67 151 0.0 0.0 0.10 0.26 0.27 93 1016.8
20260830152103 67 151 0.0 0.0 0.06 0.26 0.26 93 1016.9
20260830151741 67 145 0.0 0.0 0.06 0.26 0.26 93 1016.9
20260830151637 67 145 0.0 0.0 0.06 0.26 0.26 93 1016.9
20260830151534 67 145 0.0 0.0 0.05 0.24 0.25 93 1017.0
20260830151429 67 146 0.0 0.0 0.05 0.24 0.25 93 1017.0
20260830151327 67 145 0.0 0.0 0.05 0.24 0.25 93 1017.0
20260830151223 67 145 0.0 0.0 0.05 0.24 0.25 93 1017.1
20260830150856 67 145 0.0 0.0 0.05 0.24 0.25 93 1017.1
20260830150527 67 145 0.0 0.0 0.06 0.24 0.24 93 1017.2
20260830150423 67 145 0.0 0.0 0.06 0.24 0.24 93 1017.3
20260830150053 67 145 0.0 0.0 0.10 0.24 0.24 93 1017.3
20260830145948 67 145 0.0 0.0 0.10 0.24 0.24 93 1017.3
20260830145844 67 145 0.0 0.0 0.10 0.24 0.24 93 1017.2
20260830145737 67 145 0.0 0.0 0.10 0.24 0.24 93 1017.3
20260830145415 67 145 0.0 0.0 0.10 0.23 0.23 93 1017.4
20260830145310 67 145 0.0 0.0 0.10 0.23 0.23 93 1017.4
20260830145206 67 145 0.0 0.0 0.10 0.23 0.23 93 1017.3
20260830145102 67 145 0.0 0.0 0.10 0.23 0.23 93 1017.3
20260830144521 67 145 0.0 0.0 0.13 0.21 0.21 93 1017.3
20260830144418 67 145 0.0 0.0 0.13 0.21 0.21 93 1017.3
20260830144312 67 145 0.0 0.0 0.09 0.21 0.21 93 1017.3
20260830144208 67 145 0.0 0.0 0.09 0.21 0.21 93 1017.3
20260830144102 67 145 0.0 0.0 0.09 0.21 0.21 93 1017.3
20260830143737 67 145 0.0 0.0 0.06 0.19 0.20 93 1017.4
20260830143634 67 145 0.0 0.0 0.06 0.19 0.20 93 1017.4
20260830143529 67 145 0.0 0.0 0.06 0.19 0.20 93 1017.3
20260830143428 67 145 0.0 0.0 0.06 0.19 0.20 93 1017.3
20260830143322 67 145 0.0 0.0 0.06 0.19 0.20 93 1017.2
20260830143002 67 145 0.0 0.0 0.06 0.19 0.19 93 1017.2
20260830142900 67 145 0.0 0.0 0.06 0.19 0.19 93 1017.2
20260830142756 67 145 0.0 0.0 0.06 0.19 0.19 93 1017.2
20260830142649 67 145 0.0 0.0 0.06 0.19 0.19 93 1017.2
20260830142328 67 145 0.0 0.0 0.06 0.19 0.19 93 1017.3
20260830142220 67 145 0.0 0.0 0.06 0.18 0.19 93 1017.3
20260830142117 67 145 0.0 0.0 0.06 0.18 0.18 93 1017.3
20260830141748 67 145 0.0 0.0 0.10 0.18 0.18 93 1017.4
20260830141644 67 145 0.0 0.0 0.10 0.18 0.18 93 1017.5
20260830141540 67 145 0.0 0.0 0.10 0.18 0.18 93 1017.5
20260830141436 67 145 0.0 0.0 0.10 0.18 0.18 93 1017.5
20260830141333 67 145 0.0 0.0 0.10 0.18 0.18 93 1017.4
20260830141229 67 145 0.0 0.0 0.10 0.16 0.18 93 1017.4
20260830141128 67 145 0.0 0.0 0.12 0.16 0.17 93 1017.5
20260830140322 67 145 0.0 0.0 0.13 0.16 0.16 93 1017.5
20260830140219 67 145 0.0 0.0 0.13 0.16 0.16 93 1017.5
20260830140114 67 145 0.0 0.0 0.13 0.14 0.15 93 1017.5
20260830140008 67 145 0.0 0.0 0.10 0.14 0.15 93 1017.4
20260830135904 67 145 0.0 0.0 0.10 0.14 0.15 93 1017.4
20260830135800 67 145 0.0 0.0 0.10 0.14 0.15 93 1017.4
20260830135655 67 145 0.0 0.0 0.10 0.13 0.15 93 1017.4
20260830135549 67 145 0.0 0.0 0.12 0.13 0.13 93 1017.4
20260830135441 67 145 0.0 0.0 0.15 0.13 0.13 93 1017.3
20260830135335 67 145 0.0 0.0 0.17 0.13 0.13 93 1017.3
20260830135233 67 145 0.0 0.0 0.17 0.13 0.13 93 1017.3
20260830135129 67 145 0.0 0.0 0.17 0.13 0.13 93 1017.3
20260830135023 67 145 0.0 0.0 0.09 0.13 0.13 93 1017.3
20260830134920 67 145 0.0 0.0 0.09 0.13 0.13 93 1017.3
20260830134817 67 145 0.0 0.0 0.09 0.13 0.13 93 1017.3
20260830134710 67 145 0.0 0.0 0.09 0.12 0.13 93 1017.3
20260830134606 67 145 0.0 0.0 0.10 0.12 0.12 93 1017.3
20260830134241 67 145 0.0 0.0 0.12 0.12 0.12 93 1017.1
20260830134136 67 145 0.0 0.0 0.12 0.12 0.12 93 1017.2
20260830134034 67 145 0.0 0.0 0.12 0.10 0.10 93 1017.2
20260830133926 67 145 0.0 0.0 0.09 0.10 0.10 92 1017.3
20260830133819 66 145 0.0 0.0 0.09 0.10 0.10 93 1017.3
20260830133716 67 145 0.0 0.0 0.09 0.10 0.10 93 1017.3
20260830133611 66 145 0.0 0.0 0.09 0.09 0.10 92 1017.3
20260830133505 66 145 0.0 0.0 0.09 0.09 0.10 93 1017.3
20260830133401 66 145 0.0 0.0 0.09 0.09 0.10 93 1017.3
20260830133254 66 145 0.0 0.0 0.09 0.09 0.10 92 1017.3
20260830133149 66 145 0.0 0.0 0.09 0.09 0.10 92 1017.3
20260830133047 66 145 0.0 0.0 0.09 0.09 0.10 92 1017.3
20260830132945 66 145 0.0 0.0 0.09 0.09 0.10 92 1017.3
20260830132842 66 145 0.0 0.0 0.09 0.09 0.09 92 1017.3
20260830132735 66 145 0.0 0.0 0.04 0.09 0.09 92 1017.3
20260830132410 66 145 0.0 0.0 0.04 0.09 0.09 92 1017.4
20260830132307 66 145 0.0 0.0 0.04 0.09 0.09 92 1017.3
20260830132201 66 145 0.0 0.0 0.04 0.08 0.08 92 1017.3
20260830132057 66 145 0.0 0.0 0.05 0.08 0.08 92 1017.3
20260830131731 66 145 0.0 0.0 0.06 0.08 0.08 92 1017.3
20260830131629 66 145 0.0 0.0 0.06 0.08 0.08 92 1017.3
20260830131526 66 145 0.0 0.0 0.08 0.08 0.08 92 1017.3
20260830131422 66 145 0.0 0.0 0.10 0.08 0.08 92 1017.3
20260830131317 66 145 0.0 0.0 0.10 0.08 0.08 92 1017.3
20260830131213 66 145 0.0 0.0 0.10 0.08 0.08 92 1017.3
20260830131108 66 145 0.0 0.0 0.10 0.08 0.08 92 1017.3
20260830130741 66 145 0.0 0.0 0.10 0.06 0.06 92 1017.2
20260830130635 66 145 0.0 0.0 0.10 0.06 0.06 92 1017.1
20260830130531 66 145 0.0 0.0 0.10 0.06 0.06 92 1017.2
20260830130425 66 145 0.0 0.0 0.10 0.06 0.06 92 1017.1
20260830130318 66 145 0.0 0.0 0.10 0.06 0.06 92 1017.1
20260830125951 66 145 0.0 0.0 0.09 0.06 0.06 92 1017.0
20260830125627 66 145 0.0 0.0 0.09 0.04 0.06 92 1016.9
20260830125301 66 145 0.0 0.0 0.04 0.04 0.05 92 1016.9
20260830125156 66 145 0.0 0.0 0.04 0.04 0.05 92 1016.9
20260830125050 66 145 0.0 0.0 0.04 0.04 0.05 92 1016.8
20260830124946 66 145 0.0 0.0 0.04 0.04 0.05 92 1016.9
20260830124842 67 145 0.0 0.0 0.04 0.04 0.04 92 1016.9
20260830124736 67 145 0.0 0.0 0.04 0.04 0.04 92 1016.8
20260830124633 67 145 0.0 0.0 0.05 0.04 0.04 92 1016.8
20260830124530 67 145 0.0 0.0 0.05 0.04 0.04 92 1016.9
20260830124427 67 145 0.0 0.0 0.06 0.04 0.04 92 1016.8
20260830124100 67 145 0.0 0.0 0.06 0.04 0.04 92 1017.0
20260830123955 66 145 0.0 0.0 0.06 0.04 0.04 92 1017.1
20260830123851 67 145 0.0 0.0 0.06 0.04 0.04 92 1017.1
20260830123748 67 145 0.0 0.0 0.06 0.04 0.04 92 1017.1
20260830123646 66 145 0.0 0.0 0.06 0.04 0.04 92 1017.1
20260830123538 67 145 0.0 0.0 0.06 0.04 0.04 92 1017.1
20260830123435 67 145 0.0 0.0 0.06 0.04 0.04 92 1017.1
20260830123108 67 145 0.0 0.0 0.00 0.03 0.03 92 1017.0
20260830123003 67 145 0.0 0.0 0.00 0.03 0.03 91 1016.9
20260830122858 67 145 0.0 0.0 0.00 0.03 0.03 91 1016.9
20260830122754 67 145 0.0 0.0 0.00 0.03 0.03 91 1016.8
20260830122648 67 145 0.0 0.0 0.00 0.03 0.03 91 1016.8
20260830122543 67 145 0.0 0.0 0.00 0.03 0.03 91 1016.8
20260830122439 67 145 0.0 0.0 0.00 0.02 0.02 91 1016.6
20260830122115 67 145 0.0 0.0 0.00 0.02 0.02 91 1016.6
20260830122012 67 145 0.0 0.0 0.00 0.02 0.02 91 1016.5
20260830121906 67 145 0.0 0.0 0.00 0.02 0.02 91 1016.5
20260830121804 67 145 0.0 0.0 0.00 0.02 0.02 91 1016.5
20260830121656 67 145 0.0 0.0 0.00 0.02 0.02 91 1016.5
20260830121330 67 145 0.0 0.0 0.00 0.02 0.02 91 1016.3
20260830121010 67 145 0.0 0.0 0.00 0.02 0.02 91 1016.1
20260830120904 67 145 0.0 0.0 0.00 0.02 0.02 91 1016.0
20260830120801 67 145 0.0 0.0 0.00 0.02 0.02 91 1015.9
20260830120436 67 145 0.0 0.0 0.00 0.02 0.02 91 1015.8
20260830120330 67 145 0.0 0.0 0.00 0.02 0.02 91 1015.8
20260830120223 67 145 0.0 0.0 0.00 0.02 0.02 91 1015.7
20260830120117 67 145 0.0 0.0 0.00 0.02 0.02 91 1015.7
20260830120013 67 145 0.0 0.0 0.00 0.02 0.02 91 1015.7
20260830115909 67 145 0.0 0.0 0.00 0.02 0.02 91 1015.6
20260830115801 67 145 0.0 0.0 0.00 0.02 0.02 91 1015.6
20260830115658 67 145 0.0 0.0 0.00 0.02 0.02 91 1015.5
20260830115554 67 145 0.0 0.0 0.00 0.02 0.02 91 1015.5
20260830115230 67 145 0.0 0.0 0.00 0.02 0.02 91 1015.5
20260830115123 67 145 0.0 0.0 0.00 0.02 0.02 91 1015.5
20260830115017 67 145 0.0 0.0 0.00 0.02 0.02 91 1015.5
20260830114650 67 145 0.0 0.0 0.00 0.02 0.02 92 1015.4
20260830114322 67 145 0.0 0.0 0.00 0.02 0.02 92 1015.3
20260830114219 67 145 0.0 0.0 0.00 0.02 0.02 92 1015.3
20260830114116 67 145 0.0 0.0 0.00 0.02 0.02 92 1015.2
20260830114010 67 145 0.0 0.0 0.00 0.02 0.02 92 1015.2
20260830113906 67 145 0.0 0.0 0.00 0.02 0.02 92 1015.2
20260830113540 67 145 0.0 0.0 0.00 0.02 0.02 92 1015.1
20260830113211 67 145 0.0 0.0 0.00 0.02 0.02 92 1015.0
20260830113105 67 145 0.0 0.0 0.00 0.02 0.02 92 1015.0
20260830112738 66 145 0.0 0.0 0.00 0.02 0.02 92 1015.0
20260830112630 66 145 0.0 0.0 0.00 0.02 0.02 92 1014.9
20260830112523 66 145 0.0 0.0 0.00 0.02 0.02 92 1014.9
20260830112421 66 145 0.0 0.0 0.00 0.02 0.02 92 1014.9
20260830112314 66 145 0.0 0.0 0.00 0.02 0.02 92 1014.9
20260830112210 66 145 0.0 0.0 0.00 0.02 0.02 92 1014.9
20260830112103 66 145 0.0 0.0 0.00 0.02 0.02 92 1014.9
20260830111736 66 145 0.0 0.0 0.00 0.02 0.02 92 1014.8
20260830111632 66 145 0.0 0.0 0.00 0.02 0.02 92 1014.8
20260830111530 66 145 0.0 0.0 0.00 0.02 0.02 92 1014.7
20260830111427 66 145 0.0 0.0 0.00 0.02 0.02 92 1014.7
20260830111323 66 145 0.0 0.0 0.00 0.02 0.02 92 1014.6
20260830110959 66 146 0.0 1.0 0.00 0.02 0.02 92 1014.7
20260830110851 66 146 0.0 1.0 0.00 0.02 0.02 92 1014.7
20260830110746 66 150 0.0 0.0 0.00 0.02 0.02 92 1014.7
20260830110423 66 150 0.0 0.0 0.00 0.02 0.02 92 1014.7
20260830110318 66 150 0.0 0.0 0.00 0.02 0.02 92 1014.7
20260830110211 66 150 0.0 0.0 0.00 0.02 0.02 92 1014.7
20260830110105 66 150 0.0 0.0 0.00 0.02 0.02 92 1014.7
20260830110002 66 150 0.0 0.0 0.00 0.02 0.02 92 1014.7
20260830105855 66 150 0.0 0.0 0.00 0.02 0.02 92 1014.7
20260830105531 66 149 0.0 0.0 0.00 0.02 0.02 93 1014.7
20260830104945 66 148 0.0 0.0 0.00 0.02 0.02 93 1014.8
20260830104838 66 148 0.0 0.0 0.00 0.02 0.02 93 1014.8
20260830104730 66 148 0.0 0.0 0.00 0.02 0.02 93 1014.8
20260830104625 66 148 0.0 0.0 0.00 0.02 0.02 93 1014.9
20260830104520 66 148 0.0 1.0 0.00 0.02 0.02 93 1014.9
20260830104154 66 149 0.0 0.0 0.00 0.02 0.02 93 1014.9
20260830104048 66 149 0.0 0.0 0.00 0.02 0.02 93 1014.9
20260830103941 66 148 0.0 0.0 0.00 0.02 0.02 93 1014.9
20260830103834 66 148 0.0 0.0 0.00 0.02 0.02 93 1015.0
20260830103728 66 149 0.0 0.0 0.00 0.02 0.02 93 1014.9
20260830103624 66 149 0.0 0.0 0.00 0.02 0.02 93 1015.0
20260830103521 66 148 0.0 0.0 0.00 0.02 0.02 93 1015.0
20260830103418 66 148 0.0 0.0 0.00 0.02 0.02 93 1015.0
20260830103317 66 148 0.0 3.0 0.00 0.02 0.02 93 1014.9
20260830103213 66 150 0.0 3.0 0.00 0.02 0.02 93 1014.9
20260830103108 66 150 0.0 3.0 0.00 0.02 0.02 93 1015.0
20260830102745 66 133 0.0 1.0 0.00 0.02 0.02 93 1015.1
20260830102642 66 133 0.0 0.0 0.00 0.02 0.02 93 1015.1
20260830102539 66 133 0.0 0.0 0.00 0.02 0.02 93 1015.1
20260830101955 66 130 0.0 0.0 0.00 0.02 0.02 93 1015.3
20260830101853 66 130 0.0 0.0 0.00 0.02 0.02 93 1015.2
20260830101748 66 130 0.0 0.0 0.00 0.02 0.02 93 1015.3
20260830101642 66 130 0.0 0.0 0.00 0.02 0.02 93 1015.3
20260830101538 66 130 0.0 0.0 0.00 0.02 0.02 93 1015.4
20260830101434 66 130 0.0 0.0 0.00 0.02 0.02 93 1015.4
20260830101330 66 129 0.0 0.0 0.00 0.02 0.02 93 1015.4
20260830101224 66 129 0.0 0.0 0.00 0.02 0.02 93 1015.4
20260830101118 66 129 0.0 0.0 0.00 0.02 0.02 93 1015.5
20260830101012 66 129 0.0 0.0 0.00 0.02 0.02 93 1015.5
20260830100908 66 129 0.0 0.0 0.00 0.02 0.02 93 1015.5
20260830100801 66 129 0.0 0.0 0.00 0.02 0.02 93 1015.5
20260830100435 66 129 0.0 0.0 0.00 0.02 0.02 93 1015.5
20260830100329 66 129 0.0 0.0 0.00 0.02 0.02 93 1015.6
20260830100225 66 129 0.0 0.0 0.00 0.02 0.02 93 1015.6
20260830100121 66 129 0.0 0.0 0.00 0.02 0.02 93 1015.6
20260830095754 66 129 0.0 0.0 0.00 0.02 0.02 93 1015.7
20260830095652 66 129 0.0 0.0 0.00 0.02 0.02 93 1015.7
20260830095550 66 129 0.0 0.0 0.00 0.02 0.02 93 1015.8
20260830095445 65 129 0.0 0.0 0.00 0.02 0.02 93 1015.8
20260830095340 66 129 0.0 0.0 0.00 0.02 0.02 93 1015.8
20260830095234 66 129 0.0 0.0 0.00 0.02 0.02 93 1015.8